OPS 3899

导读

OPS 3899是美国于1983年6月20日发射的军用侦察卫星,隶属于美国国家侦察局(NRO)保密项目,"OPS"是美国军方早期军用卫星通用名称前缀。这颗卫星承担空间侦察与信息搜集任务,运行在近地轨道,是美国冷战时期空间监视体系的组成部分,承担战略情报获取职能,体现了美国当时在航天侦察领域的技术能力。

基本信息
目录编号:
14139
目录名称:
OPS 3899
国际标识:
1983-060C
轨道中心:
EARTH
卫星名称:
OPS 3899
卫星全名:
--
卫星状态:
在轨 (已飞行15703 天)
发射日期:
1983-06-20 UTC
国别 :
美国 (US)
星等 :
--
轨道信息
数据来源 国际轨道数据 AOE轨道数据
星历时间 2026-06-17T10:30:06+0800
13小时前
查看轨道信息
2026-06-17T02:00:00+0800
22小时前
查看轨道信息
半长轴 7663.877km 7663.873km
偏心率 0.0002032 0.0002247
轨道倾角 96.677° 96.677°
近地点辐角 60.524° 54.492°
升交点赤经 61.457° 61.241°
平近点角 299.608° 96.365°
近地点 1284.182km 1284.013km
远地点 1287.298km 1287.459km
周期 111.284分钟 111.284分钟
每日圈数 12.939872 12.939883
详细信息
使用方式:
暂无
2D轨道图
3D轨道图
轨道高度分析图
轨道倾角分析图
轨道综合分析图
查看轨道综合分析图